Volver al catálogo

RAPTOR3

ActivoMilitarLEO
NORAD 58958·PAYLOAD·🇺🇸 United States

Lanzado Feb 14, 2024 desde Cape Canaveral Space Force Station

Loading…

Próximos Pases (próximas 24 horas)

TLE

ActualizadoSource: Space-Track

Época: Sep 14, 2026, 14:25 UTC

1 58958U 24028D   26257.60085865 -.00000055  00000-0  25926-4 0  9990
2 58958  39.9929 352.5558 0010320  47.8645 312.2977 13.70489098129339

Sigue RAPTOR3 en tiempo real con AllMySat

Download on the App Store